Weather History for KOTM - February, 2015

Change the Weather History Date:

Thursday, February 26, 2015

  Actual Average Record
Temperature  
Mean Temperature 5 °F 31 °F  
Max Temperature 14 °F 41 °F 64 °F (1932)
Min Temperature -4 °F 22 °F -12 °F (1963)
Degree Days  
Heating Degree Days 60 34  
Month to date heating degree days 1225 995  
Since 1 July heating degree days 5012 4817  
Cooling Degree Days 0 0  
Month to date cooling degree days 0 0  
Year to date cooling degree days 0 0  
Moisture  
Dew Point -3 °F    
Average Humidity 71    
Maximum Humidity 84    
Minimum Humidity 57    
Precipitation  
Precipitation T in 0.07 in 1.00 in (1903)
Month to date precipitation 0.22 1.15  
Year to date precipitation 1.16 2.05  
Sea Level Pressure  
Sea Level Pressure 30.41 in    
Wind  
Wind Speed 17 mph (NNW)    
Max Wind Speed 24 mph    
Max Gust Speed 29 mph    
Visibility 10 miles    
Events Snow    
T = Trace of Precipitation, MM = Missing Value Source: NWS Daily Summary

Daily Weather History Graph

Daily Weather History Graph

Search for Another Location

Airport or City:

Trip Planner

Search our weather history database for the weather conditions in past years. The results will help you decide how hot, cold, wet, or windy it might be!

Date:

Astronomy

Feb. 26, 2015 Rise Set
Actual Time 6:48 AM CST 5:57 PM CST
Civil Twilight 6:21 AM CST 6:24 PM CST
Nautical Twilight 5:49 AM CST 6:56 PM CST
Astronomical Twilight 5:17 AM CST 7:28 PM CST
Moon 11:56 AM CST (2/26) 1:46 AM CST (2/26)
Length of Visible Light 12h 03m
Length of Day
11h 08m
First Quarter, 61% of the Moon is Illuminated
Feb 26
First Quarter
Mar 5
Full
Mar 13
Last Quarter
Mar 20
New
Mar 27
First Quarter

Hourly Weather History & Observations

Time (CST) Temp. Windchill Dew Point Humidity Pressure Visibility Wind Dir Wind Speed Gust Speed Precip Events Conditions
12:53 AM 12.9 °F -3.9 °F 8.1 °F 81% 30.17 in 7.0 mi North 17.3 mph - 0.00 in Snow Light Snow
1:01 AM 12.9 °F -4.9 °F 8.1 °F 81% 30.13 in 7.0 mi North 19.6 mph - 0.00 in   Overcast
1:53 AM 12.9 °F -5.3 °F 6.1 °F 74% 30.18 in 10.0 mi North 20.7 mph - 0.00 in   Overcast
2:53 AM 10.9 °F -7.5 °F 3.9 °F 73% 30.21 in 10.0 mi NNW 19.6 mph - N/A   Overcast
3:53 AM 8.1 °F -9.6 °F -0.0 °F 70% 30.25 in 10.0 mi NNW 16.1 mph - N/A   Overcast
4:53 AM 8.6 °F -9.5 °F -0.4 °F 67% 30.22 in 10.0 mi NNW 17.3 mph - N/A   Overcast
5:53 AM 8.1 °F -9.0 °F -2.0 °F 64% 30.29 in 10.0 mi North 15.0 mph - N/A   Overcast
6:53 AM 7.0 °F -10.4 °F -2.0 °F 67% 30.32 in 10.0 mi NNW 15.0 mph - N/A   Overcast
7:53 AM 3.9 °F -15.0 °F -5.1 °F 66% 30.37 in 10.0 mi NNW 16.1 mph - N/A   Partly Cloudy
8:53 AM 3.9 °F -16.6 °F -6.0 °F 64% 30.41 in 10.0 mi NNW 19.6 mph - N/A   Clear
9:53 AM 5.0 °F -15.7 °F -5.1 °F 63% 30.43 in 10.0 mi NNW 20.7 mph - N/A   Clear
10:53 AM 6.8 °F -12.9 °F -4.0 °F 61% 30.39 in 10.0 mi NNW 19.6 mph - N/A   Clear
11:53 AM 8.1 °F -10.7 °F -2.0 °F 64% 30.45 in 10.0 mi NNW 18.4 mph - N/A   Clear
12:53 PM 9.0 °F -10.0 °F -0.9 °F 64% 30.45 in 10.0 mi NNW 19.6 mph - N/A   Clear
1:53 PM 10.4 °F -10.3 °F -0.4 °F 62% 30.40 in 10.0 mi NNW 25.3 mph - N/A   Clear
2:29 PM 10.0 °F -9.1 °F -0.0 °F 64% 30.41 in 10.0 mi NW 20.7 mph - N/A   Mostly Cloudy
2:53 PM 10.0 °F -8.6 °F -0.0 °F 64% 30.47 in 10.0 mi NNW 19.6 mph 28.8 mph N/A   Mostly Cloudy
3:10 PM 9.0 °F -10.5 °F -0.9 °F 64% 30.42 in 10.0 mi NW 20.7 mph - N/A   Scattered Clouds
3:53 PM 9.0 °F -10.0 °F -4.0 °F 56% 30.49 in 10.0 mi NNW 19.6 mph - N/A   Clear
4:53 PM 7.0 °F -12.6 °F -5.1 °F 58% 30.51 in 10.0 mi NNW 19.6 mph - N/A   Clear
5:53 PM 3.9 °F -13.7 °F -6.0 °F 64% 30.53 in 10.0 mi NW 13.8 mph - N/A   Clear
6:53 PM 1.9 °F -16.9 °F -7.1 °F 66% 30.56 in 10.0 mi NW 15.0 mph - N/A   Clear
7:53 PM -0.0 °F -18.0 °F -8.0 °F 69% 30.58 in 10.0 mi NW 12.7 mph - N/A   Clear
8:53 PM -4.0 °F -20.2 °F -11.2 °F 71% 30.53 in 10.0 mi NW 9.2 mph - N/A   Clear
9:53 PM -2.0 °F -19.6 °F -9.0 °F 72% 30.61 in 10.0 mi NW 11.5 mph - N/A   Clear
10:53 PM -2.9 °F -18.8 °F -9.0 °F 75% 30.61 in 10.0 mi NW 9.2 mph - N/A   Clear
11:53 PM -2.9 °F -18.8 °F -9.9 °F 72% 30.61 in 10.0 mi NW 9.2 mph - N/A   Clear